{"data":{"norad_id":56065,"intl_designator":"2023-043V","name":"ONEWEB-0576","alt_names":[],"object_type":"PAYLOAD","status":"ACTIVE","operator":null,"country":"UK","launch_date":"2023-03-26","launch_site_code":"SRILR","launch_vehicle":null,"mission":null,"orbit_class":"UNKNOWN","rcs_meters":null,"size_class":null,"mass_kg":null,"dimensions":null,"purposes":["comms"],"wikipedia_slug":null,"has_3d_model":false,"image_url":null,"decayed_at":null,"tle_current":{"epoch":"2026-05-25T04:28:34.045824Z","epoch_age_seconds":55607,"freshness":"FRESH","line1":"1 56065U 23043V   26145.18650516  .00000280  00000+0  69779-3 0  9994","line2":"2 56065  87.9106 233.3410 0002310  98.7415 261.3977 13.16599737155930","mean_motion":13.16599737,"eccentricity":0.000231,"inclination_deg":87.9106,"raan_deg":233.341,"arg_perigee_deg":98.7415,"mean_anomaly_deg":261.3977,"bstar":0.00069779,"rev_number":15593,"period_min":109.37264831005,"perigee_km":1195.9856187221,"apogee_km":1199.4856718843,"semimajor_km":7575.8726453032,"source":"CELESTRAK","updated_at":"2026-05-25T13:38:22.703885Z"}}}